Ely, MN

12:06 PM CDT on July 20, 2017 (GMT -0500)
Ely Municipal

Weather History for KELO - May, 2013

Change the Weather History Date:

Friday, May 31, 2013

  Actual Average Record
Temperature  
Mean Temperature 66 °F -  
Max Temperature 78 °F 64 °F 80 °F (1997)
Min Temperature 55 °F 40 °F 30 °F (2012)
Cooling Degree Days 2    
Growing Degree Days 16 (Base 50)    
Moisture  
Dew Point 55 °F    
Average Humidity 75    
Maximum Humidity 94    
Minimum Humidity 34    
Precipitation  
Precipitation 0.10 in - - ()
Sea Level Pressure  
Sea Level Pressure 29.55 in    
Wind  
Wind Speed 8 mph (SSE)    
Max Wind Speed 23 mph    
Max Gust Speed 34 mph    
Visibility 10 miles    
Events Rain , Thunderstorm    
Averages and records for this station are not official NWS values.
T = Trace of Precipitation, MM = Missing Value Source: NWS Daily Summary

Daily Weather History Graph

Daily Weather History Graph

Search for Another Location

Airport or City:

Trip Planner

Search our weather history database for the weather conditions in past years. The results will help you decide how hot, cold, wet, or windy it might be!

Date:

Astronomy

May. 31, 2013 Rise Set
Actual Time 5:13 AM CDT 8:57 PM CDT
Civil Twilight 4:33 AM CDT 9:36 PM CDT
Nautical Twilight 3:40 AM CDT 10:30 PM CDT
Astronomical Twilight 2:24 AM CDT 11:48 PM CDT
Moon 1:10 AM CDT (5/31) 12:52 PM CDT (5/31)
Length of Visible Light 17h 03m
Length of Day
15h 44m
Waning Gibbous, 51% of the Moon is Illuminated
May 31
Waning Gibbous
May 31
Last Quarter
Jun 8
New
Jun 16
First Quarter
Jun 23
Full

Hourly Weather History & Observations

Time (CDT) Temp. Dew Point Humidity Pressure Visibility Wind Dir Wind Speed Gust Speed Precip Events Conditions
12:13 AM 62.6 °F 59.0 °F 88% 29.57 in 10.0 mi ESE 5.8 mph - N/A   Mostly Cloudy
12:33 AM 60.8 °F 57.2 °F 88% 29.57 in 10.0 mi East 5.8 mph - N/A   Mostly Cloudy
12:53 AM 62.6 °F 59.0 °F 88% 29.57 in 10.0 mi East 6.9 mph - N/A   Mostly Cloudy
1:13 AM 62.6 °F 59.0 °F 88% 29.57 in 10.0 mi East 5.8 mph - N/A   Mostly Cloudy
1:33 AM 62.6 °F 59.0 °F 88% 29.56 in 10.0 mi East 5.8 mph - N/A   Overcast
1:53 AM 62.6 °F 60.8 °F 94% 29.56 in 10.0 mi East 3.5 mph - N/A   Overcast
2:13 AM 62.6 °F 60.8 °F 94% 29.55 in 10.0 mi SE 8.1 mph - N/A   Mostly Cloudy
2:33 AM 62.6 °F 60.8 °F 94% 29.54 in 10.0 mi SE 9.2 mph - N/A   Mostly Cloudy
2:53 AM 62.6 °F 60.8 °F 94% 29.54 in 10.0 mi SE 10.4 mph - N/A   Overcast
3:13 AM 62.6 °F 59.0 °F 88% 29.53 in 10.0 mi SE 13.8 mph - N/A   Overcast
3:33 AM 62.6 °F 59.0 °F 88% 29.53 in 10.0 mi SSE 9.2 mph - N/A   Mostly Cloudy
3:53 AM 62.6 °F 59.0 °F 88% 29.54 in 10.0 mi SSE 8.1 mph - N/A   Mostly Cloudy
4:13 AM 62.6 °F 59.0 °F 88% 29.54 in 10.0 mi SSE 8.1 mph - N/A   Overcast
4:31 AM 62.6 °F 59.0 °F 88% 29.55 in 7.0 mi SSE 6.9 mph - N/A   Overcast
4:53 AM 62.6 °F 59.0 °F 88% 29.54 in 5.0 mi South 8.1 mph - 0.02 in Rain Heavy Rain
5:13 AM 60.8 °F 59.0 °F 94% 29.54 in 10.0 mi SSE 3.5 mph - N/A Rain Light Rain
5:33 AM 60.8 °F 59.0 °F 94% 29.55 in 10.0 mi SSE 4.6 mph - N/A   Overcast
5:52 AM 60.8 °F 59.0 °F 94% 29.55 in 7.0 mi SSE 5.8 mph - 0.01 in Rain Rain
6:13 AM 60.8 °F 59.0 °F 94% 29.55 in 10.0 mi SSE 4.6 mph - 0.01 in Rain Light Rain
6:33 AM 60.8 °F 59.0 °F 94% 29.54 in 10.0 mi SE 4.6 mph - 0.02 in Rain Light Rain
6:52 AM 60.8 °F 59.0 °F 94% 29.54 in 10.0 mi SE 4.6 mph - 0.02 in   Mostly Cloudy
7:13 AM 62.6 °F 60.8 °F 94% 29.55 in 10.0 mi SSE 9.2 mph - N/A   Overcast
7:33 AM 62.6 °F 59.0 °F 88% 29.55 in 10.0 mi SSE 3.5 mph - N/A   Mostly Cloudy
7:52 AM 62.6 °F 60.8 °F 94% 29.55 in 10.0 mi South 6.9 mph - N/A   Scattered Clouds
8:13 AM 62.6 °F 59.0 °F 88% 29.55 in 10.0 mi SSE 6.9 mph - N/A   Mostly Cloudy
8:33 AM 62.6 °F 59.0 °F 88% 29.55 in 10.0 mi SSE 8.1 mph - N/A   Mostly Cloudy
8:52 AM 62.6 °F 59.0 °F 88% 29.55 in 10.0 mi SSE 5.8 mph - N/A Rain Light Rain
9:13 AM 62.6 °F 59.0 °F 88% 29.55 in 10.0 mi South 9.2 mph - 0.01 in Rain Light Rain
9:33 AM 62.6 °F 59.0 °F 88% 29.56 in 10.0 mi South 3.5 mph - 0.01 in   Overcast
9:52 AM 62.6 °F 59.0 °F 88% 29.55 in 10.0 mi South 11.5 mph - 0.01 in   Scattered Clouds
10:13 AM 64.4 °F 57.2 °F 77% 29.55 in 10.0 mi South 10.4 mph - N/A   Scattered Clouds
10:33 AM 64.4 °F 57.2 °F 77% 29.55 in 10.0 mi SSE 8.1 mph - N/A   Scattered Clouds
10:53 AM 66.2 °F 57.2 °F 73% 29.55 in 10.0 mi SSE 11.5 mph 17.3 mph N/A   Clear
11:13 AM 68.0 °F 57.2 °F 68% 29.55 in 10.0 mi South 9.2 mph - N/A   Clear
11:32 AM 69.8 °F 55.4 °F 60% 29.54 in 10.0 mi South 11.5 mph 18.4 mph N/A   Clear
11:53 AM 71.6 °F 57.2 °F 60% 29.54 in 10.0 mi South 10.4 mph 16.1 mph N/A   Scattered Clouds
12:13 PM 71.6 °F 55.4 °F 57% 29.53 in 10.0 mi South 12.7 mph - N/A   Scattered Clouds
12:32 PM 73.4 °F 55.4 °F 53% 29.53 in 10.0 mi South 13.8 mph 18.4 mph N/A   Clear
12:53 PM 73.4 °F 53.6 °F 50% 29.52 in 10.0 mi SSE 11.5 mph 19.6 mph N/A   Clear
1:13 PM 75.2 °F 51.8 °F 44% 29.53 in 10.0 mi South 16.1 mph 26.5 mph N/A   Clear
1:32 PM 75.2 °F 53.6 °F 47% 29.52 in 10.0 mi SSE 15.0 mph 24.2 mph N/A   Scattered Clouds
1:53 PM 75.2 °F 51.8 °F 44% 29.53 in 10.0 mi South 16.1 mph 26.5 mph N/A   Scattered Clouds
2:13 PM 75.2 °F 50.0 °F 41% 29.54 in 10.0 mi South 10.4 mph 21.9 mph N/A   Mostly Cloudy
2:32 PM 75.2 °F 50.0 °F 41% 29.53 in 10.0 mi South 18.4 mph 27.6 mph N/A   Scattered Clouds
2:53 PM 75.2 °F 48.2 °F 38% 29.53 in 10.0 mi South 9.2 mph 24.2 mph N/A   Scattered Clouds
3:13 PM 77.0 °F 48.2 °F 36% 29.52 in 10.0 mi South 19.6 mph 26.5 mph N/A   Scattered Clouds
3:32 PM 78.8 °F 48.2 °F 34% 29.52 in 10.0 mi South 13.8 mph 24.2 mph N/A   Scattered Clouds
3:53 PM 75.2 °F 48.2 °F 38% 29.51 in 10.0 mi South 15.0 mph 23.0 mph N/A   Scattered Clouds
4:10 PM 77.0 °F 48.2 °F 36% 29.50 in 10.0 mi South 12.7 mph 21.9 mph N/A   Clear
4:33 PM 77.0 °F 46.4 °F 34% 29.50 in 10.0 mi South 18.4 mph 24.2 mph N/A   Mostly Cloudy
4:53 PM 66.2 °F 48.2 °F 52% 29.55 in 10.0 mi South 23.0 mph 34.5 mph N/A Rain , Thunderstorm Light Thunderstorms and Rain
5:13 PM 60.8 °F 51.8 °F 72% 29.57 in 10.0 mi SSW 9.2 mph - N/A Rain , Thunderstorm Rain
5:33 PM 60.8 °F 51.8 °F 72% 29.58 in 10.0 mi South 20.7 mph 29.9 mph 0.01 in Rain Light Rain
5:53 PM 59.0 °F 53.6 °F 82% 29.57 in 10.0 mi SSW 5.8 mph - 0.04 in Rain Light Rain
6:13 PM 60.8 °F 53.6 °F 77% 29.57 in 10.0 mi SW 5.8 mph - N/A   Scattered Clouds
6:33 PM 62.6 °F 53.6 °F 72% 29.56 in 10.0 mi South 8.1 mph - N/A   Scattered Clouds
6:53 PM 62.6 °F 53.6 °F 72% 29.55 in 10.0 mi Calm Calm - N/A   Mostly Cloudy
7:12 PM 62.6 °F 51.8 °F 68% 29.56 in 10.0 mi Calm Calm - N/A   Scattered Clouds
7:33 PM 62.6 °F 51.8 °F 68% 29.56 in 10.0 mi South 8.1 mph - N/A   Clear
7:53 PM 62.6 °F 51.8 °F 68% 29.57 in 10.0 mi South 11.5 mph 20.7 mph N/A   Clear
8:12 PM 62.6 °F 51.8 °F 68% 29.58 in 10.0 mi South 6.9 mph - N/A   Clear
8:33 PM 60.8 °F 51.8 °F 72% 29.58 in 10.0 mi SSE 4.6 mph - N/A   Clear
8:53 PM 60.8 °F 51.8 °F 72% 29.58 in 10.0 mi SSE 3.5 mph - N/A   Scattered Clouds
9:12 PM 57.2 °F 51.8 °F 82% 29.58 in 10.0 mi SE 5.8 mph - N/A   Scattered Clouds
9:33 PM 59.0 °F 51.8 °F 77% 29.58 in 10.0 mi Calm Calm - N/A   Overcast
9:53 PM 57.2 °F 51.8 °F 82% 29.58 in 10.0 mi SE 5.8 mph - N/A   Mostly Cloudy
10:12 PM 55.4 °F 51.8 °F 88% 29.58 in 10.0 mi SE 4.6 mph - N/A   Mostly Cloudy
10:33 PM 55.4 °F 51.8 °F 88% 29.58 in 10.0 mi ESE 4.6 mph - N/A   Scattered Clouds
10:53 PM 55.4 °F 51.8 °F 88% 29.58 in 10.0 mi ESE 3.5 mph - N/A   Scattered Clouds
11:12 PM 57.2 °F 51.8 °F 82% 29.58 in 10.0 mi ESE 3.5 mph - N/A   Mostly Cloudy
11:33 PM 57.2 °F 51.8 °F 82% 29.58 in 10.0 mi ESE 3.5 mph - N/A   Overcast
11:53 PM 57.2 °F 51.8 °F 82% 29.58 in 10.0 mi East 3.5 mph - N/A   Overcast